Regional Weather Roundup
Issued by NWS

Home | Current Version | Previous Version | Text Only | Print | Product List | Glossary On
Versions: 1 2 3 4 5 6 7 8 9 10 11 12 13 14 15 16 17 18 19 20 21 22 23 24 25 26 27 28 29 30 31 32 33 34 35 36 37 38 39 40 41 42 43 44 45 46 47 48 49 50
000
ASUS43 KMKX 301330
RWRWI

WISCONSIN REGIONAL WEATHER ROUNDUP
NATIONAL WEATHER SERVICE MILWAUKEE/SULLIVAN WI
ISSUED BY NATIONAL WEATHER SERVICE GREEN BAY WI
800 AM CDT TUE SEP 30 2014

NOTE: "FAIR" INDICATES FEW OR NO CLOUDS BELOW 12,000 FEET WITH NO
SIGNIFICANT WEATHER AND/OR OBSTRUCTIONS TO VISIBILITY.

WIZ001-002-006>008-014>016-023>028-301400-
NORTHWEST WISCONSIN

CITY           SKY/WX    TMP DP  RH WIND       PRES   REMARKS
SUPERIOR ARPT  CLOUDY    44  40  86 E8        30.13F
ASHLAND        NOT AVBL
HAYWARD        CLOUDY    40  37  89 E6        30.12F
RICE LAKE      CLOUDY    40  37  87 NE8       30.13R
EAU CLAIRE     CLOUDY    41  36  82 E9        30.10F
NEW RICHMOND   NOT AVBL
OSCEOLA        CLOUDY    42  41  96 E8        30.12S
SIREN          CLOUDY    42  39  90 E6        30.10F
$$

WIZ003>005-009-010-017-018-301400-
NORTH CENTRAL WISCONSIN

CITY           SKY/WX    TMP DP  RH WIND       PRES   REMARKS
WOODRUFF       CLOUDY    39  37  93 NE5       30.12S
RHINELANDER    CLOUDY    38  36  92 NE8       30.12F
EAGLE RIVER    DRIZZLE   38  38 100 NE5       30.11F
PHILLIPS       CLOUDY    37  36  95 NE7       30.11F
MEDFORD        CLOUDY    37  36  94 E5        30.10F
MERRILL        CLOUDY    39  38  97 N6        30.11F
$$

WIZ029-030-035-036-043>047-301400-
CENTRAL WISCONSIN

CITY           SKY/WX    TMP DP  RH WIND       PRES   REMARKS
WAUSAU         CLOUDY    40  37  89 N3        30.11R
MOSINEE        CLOUDY    39  37  93 N7        30.12S
MARSHFIELD     CLOUDY    40  36  86 E8        30.10F
WISC RAPIDS    CLOUDY    41  36  82 E7        30.12F
STEVENS POINT  CLOUDY    38  37  92 NE6       30.12S
CAMP DOUGLAS   CLOUDY    41  41 100 NE8       30.11S
$$

WIZ011>013-019>022-031-037>040-048>050-301400-
NORTHEAST WISCONSIN

CITY           SKY/WX    TMP DP  RH WIND       PRES   REMARKS
ANTIGO         CLOUDY    38  37  97 N6        30.11S FOG
GREEN BAY      CLOUDY    43  40  89 N8        30.11R
STURGEON BAY   NOT AVBL
MANITOWOC      NOT AVBL
APPLETON       CLOUDY    43  37  81 NE8       30.11S
CLINTONVILLE   CLOUDY    43  37  81 N7        30.12R
OSHKOSH        CLOUDY    44  39  82 N9        30.10S
$$

WIZ032>034-041-042-053>061-301400-
SOUTHWEST WISCONSIN

CITY           SKY/WX    TMP DP  RH WIND       PRES   REMARKS
LA CROSSE      CLOUDY    46  40  79 E13       30.09F
BOSCOBEL       CLOUDY    47  42  83 E8        30.10R
SPARTA         CLOUDY    42  39  88 E10       30.11S
PRAIR DU CHIEN CLOUDY    47  42  85 E10       30.08R
$$

WIZ056-057-062-063-064-067-068-301400-
SOUTH CENTRAL WISCONSIN

CITY           SKY/WX    TMP DP  RH WIND       PRES   REMARKS
BARABOO/DELLS  CLOUDY    41  38  88 NE7       30.09F
LONE ROCK      CLOUDY    49  41  74 E9        30.10S
MINERAL POINT  CLOUDY    45  41  87 NE8       30.08S
MADISON        CLOUDY    44  40  85 NE8       30.10R
MONROE         CLOUDY    43  41  93 NE13      30.07F
JANESVILLE     CLOUDY    46  41  81 NE10      30.08S
WATERTOWN      CLOUDY    42  40  93 NE7       30.09S
$$

WIZ051-052-058>065-066-070>072-301400-
SOUTHEAST WISCONSIN

CITY           SKY/WX    TMP DP  RH WIND       PRES   REMARKS
MILWAUKEE      CLOUDY    46  40  79 NW12      30.08S
WAUKESHA       CLOUDY    43  37  81 N7        30.10S
MILWAUKEE/TIMM CLOUDY    45  37  76 W9G16     30.09S
RACINE         CLOUDY    46  42  86 N9        30.08S
BURLINGTON     CLOUDY    43  38  83 N12       30.09R
KENOSHA        CLOUDY    46  42  86 N9        30.07S
FOND DU LAC    CLOUDY    45  39  79 NE7       30.09F
SHEBOYGAN      NOT AVBL
WEST BEND      CLOUDY    43  37  81 N9        30.08S
JUNEAU         CLOUDY    43  40  89 N8        30.09F
$$

LSZ147-162-301400-
LAKE SUPERIOR

STATION/POSITION TIME  TEMP    WIND        PRES    WAVE
                       AIR SEA DIR/SP/G            HT/PER
                 (UTC) (F)     (DEG/KT/KT) (MB)    (FT/S)
W MID LAKE BUOY  1300   44 49   70/  8/ 10 1022.3R   3/ 6
DEVILS ISLAND    1300   44      80/ 11/ 12 1022.1R
$$

LMZ867-665-643>646-301400-
LAKE MICHIGAN

STATION/POSITION TIME  TEMP    WIND        PRES    WAVE
                       AIR SEA DIR/SP/G            HT/PER
                 (UTC) (F)     (DEG/KT/KT) (MB)    (FT/S)
N MID LAKE BUOY  1300   47 58   10/ 16/ 19 1018.4R   3/ 5
SHEBOYGAN LKSHOR 1300   45 54  340/ 10/ 11 1019.3S
MILWAUKEE LKSHOR 1300          330/ 11/ 13   N/A
KENOSHA   LKSHOR 1300          330/ 13/ 17 1017.6F
S MID LAKE BUOY  1300   53 61  360/ 17/ 21 1017.1R   6/ 8
$$

TC  - TEMPERATURE IN CELSIUS
VSB - VISIBILITY IN STATUTE MILES
WCI - WIND CHILL INDEX
HX  - HEAT INDEX







USA.gov is the U.S. government's official web portal to all federal, state and local government web resources and services.